Lancaster, CA

11:33 PM PDT on August 21, 2017 (GMT -0700)
Gen Fox

Weather History for KWJF - March, 2015

Change the Weather History Date:

Saturday, March 7, 2015

  Actual Average Record
Temperature  
Mean Temperature 52 °F 52 °F  
Max Temperature 75 °F 66 °F 84 °F (1972)
Min Temperature 28 °F 38 °F 21 °F (1956)
Degree Days  
Heating Degree Days 13    
Month to date heating degree days 127  
Since 1 July heating degree days 1996  
Cooling Degree Days 0    
Month to date cooling degree days 0  
Year to date cooling degree days 0  
Growing Degree Days 2 (Base 50)    
Moisture  
Dew Point 22 °F    
Average Humidity 40    
Maximum Humidity 69    
Minimum Humidity 11    
Precipitation  
Precipitation 0.00 in 0.04 in 1.85 in (1952)
Month to date precipitation 0.04 0.34  
Year to date precipitation 1.40 3.62  
Snow  
Snow 0.00 in - 6.00 in (1952)
Month to date snowfall 0.0  
Since 1 July snowfall 0.0  
Snow Depth 0.00 in    
Sea Level Pressure  
Sea Level Pressure 30.11 in    
Wind  
Wind Speed 4 mph (NW)    
Max Wind Speed 14 mph    
Max Gust Speed 18 mph    
Visibility 10 miles    
Events      
T = Trace of Precipitation, MM = Missing Value Source: NWS Daily Summary

Daily Weather History Graph

Daily Weather History Graph

Search for Another Location

Airport or City:

Trip Planner

Search our weather history database for the weather conditions in past years. The results will help you decide how hot, cold, wet, or windy it might be!

Date:

Astronomy

Mar. 07, 2015 Rise Set
Actual Time 6:14 AM PST 5:53 PM PST
Civil Twilight 5:49 AM PST 6:19 PM PST
Nautical Twilight 5:20 AM PST 6:48 PM PST
Astronomical Twilight 4:50 AM PST 7:17 PM PST
Moon 7:54 PM PST (3/7) 7:08 AM PST (3/7)
Length of Visible Light 12h 29m
Length of Day
11h 39m
Waning Gibbous, 96% of the Moon is Illuminated
Mar 7
Waning Gibbous
Mar 13
Last Quarter
Mar 20
New
Mar 27
First Quarter
Apr 4
Full

Hourly Weather History & Observations

Time (PST) Temp. Windchill Dew Point Humidity Pressure Visibility Wind Dir Wind Speed Gust Speed Precip Events Conditions
12:56 AM 37.0 °F 34.5 °F 23.0 °F 57% 30.17 in 10.0 mi West 3.5 mph - N/A   Clear
1:56 AM 36.0 °F 31.1 °F 23.0 °F 59% 30.15 in 10.0 mi West 5.8 mph - N/A   Clear
2:56 AM 37.0 °F - 21.9 °F 54% 30.14 in 10.0 mi Calm Calm - N/A   Clear
3:56 AM 36.0 °F 32.1 °F 23.0 °F 59% 30.14 in 10.0 mi SW 4.6 mph - N/A   Clear
4:56 AM 30.0 °F 26.5 °F 21.0 °F 69% 30.16 in 10.0 mi NW 3.5 mph - N/A   Clear
5:56 AM 30.9 °F - 21.0 °F 67% 30.17 in 10.0 mi Calm Calm - N/A   Clear
6:56 AM 32.0 °F 28.7 °F 21.9 °F 66% 30.19 in 10.0 mi WNW 3.5 mph - N/A   Clear
7:56 AM 39.9 °F - 25.0 °F 55% 30.20 in 10.0 mi Calm Calm - N/A   Clear
8:56 AM 50.0 °F - 28.0 °F 43% 30.20 in 10.0 mi Calm Calm - N/A   Clear
9:56 AM 59.0 °F - 19.0 °F 21% 30.19 in 10.0 mi Calm Calm - N/A   Clear
10:56 AM 68.0 °F - 19.9 °F 16% 30.16 in 10.0 mi NE 4.6 mph - N/A   Clear
11:56 AM 71.1 °F - 19.9 °F 14% 30.13 in 10.0 mi East 9.2 mph - N/A   Clear
12:56 PM 73.0 °F - 19.0 °F 13% 30.09 in 10.0 mi ENE 11.5 mph - N/A   Clear
1:56 PM 73.9 °F - 19.0 °F 13% 30.06 in 10.0 mi ENE 6.9 mph - N/A   Clear
2:56 PM 75.0 °F - 18.0 °F 12% 30.04 in 10.0 mi NE 5.8 mph - N/A   Clear
3:56 PM 73.9 °F - 19.0 °F 13% 30.03 in 10.0 mi NNE 9.2 mph - N/A   Clear
4:56 PM 73.9 °F - 19.0 °F 13% 30.03 in 10.0 mi Calm Calm - N/A   Clear
5:56 PM 69.1 °F - 21.0 °F 16% 30.04 in 10.0 mi Calm Calm - N/A   Clear
6:56 PM 53.1 °F - 30.9 °F 43% 30.06 in 10.0 mi West 8.1 mph - N/A   Clear
7:56 PM 52.0 °F - 28.9 °F 41% 30.07 in 10.0 mi West 6.9 mph - N/A   Clear
8:56 PM 46.9 °F - 25.0 °F 42% 30.07 in 10.0 mi WNW 4.6 mph - N/A   Clear
9:56 PM 48.0 °F - 21.0 °F 34% 30.07 in 10.0 mi SW 4.6 mph - N/A   Clear
10:56 PM 46.0 °F 43.1 °F 21.9 °F 39% 30.07 in 10.0 mi West 5.8 mph - N/A   Clear
11:56 PM 42.1 °F - 21.9 °F 45% 30.07 in 10.0 mi Calm Calm - N/A   Clear